Time,TemperatureF,DewpointF,PressureIn,WindDirection,WindDirectionDegrees,WindSpeedMPH,WindSpeedGustMPH,Humidity,HourlyPrecipIn,Conditions,Clouds,dailyrainin,SoftwareType,DateUTC
2013-07-20 00:00:00,77.8,68.1,29.72,NNE,26,0.0,2.0,72,0.00,,---,0.00,VWS V14.01,2013-07-20 07:00:00,
2013-07-20 00:01:00,77.7,68.0,29.72,NNE,26,1.0,2.0,72,0.00,,---,0.10,VWS V14.01,2013-07-20 07:01:00,
2013-07-20 00:06:00,77.9,67.8,29.72,NNE,30,0.0,1.0,71,0.00,,---,0.00,VWS V14.01,2013-07-20 07:06:00,
2013-07-20 00:11:00,77.9,67.8,29.72,NNE,30,0.0,1.0,71,0.00,,---,0.00,VWS V14.01,2013-07-20 07:11:00,
2013-07-20 00:17:00,78.1,67.9,29.72,ENE,76,0.0,1.0,71,0.00,,---,0.00,VWS V14.01,2013-07-20 07:17:00,
2013-07-20 00:22:00,78.0,67.8,29.71,ENE,77,0.0,1.0,71,0.00,,---,0.00,VWS V14.01,2013-07-20 07:22:00,
2013-07-20 00:27:00,77.8,68.5,29.71,ENE,76,1.0,1.0,73,0.00,,---,0.00,VWS V14.01,2013-07-20 07:27:00,
2013-07-20 00:30:00,77.4,68.9,29.72,ENE,70,0.0,2.0,75,0.00,,---,0.00,VWS V14.01,2013-07-20 07:30:00,
2013-07-20 00:32:00,77.5,69.0,29.72,ENE,70,0.0,2.0,75,0.00,,---,0.00,VWS V14.01,2013-07-20 07:32:00,
2013-07-20 00:37:00,77.2,68.7,29.72,ENE,70,0.0,0.0,75,0.00,,---,0.00,VWS V14.01,2013-07-20 07:37:00,
2013-07-20 00:42:00,76.9,68.8,29.72,ENE,69,0.0,0.0,76,0.00,,---,0.00,VWS V14.01,2013-07-20 07:42:00,
2013-07-20 00:47:00,76.7,68.9,29.72,ENE,68,0.0,0.0,77,0.00,,---,0.00,VWS V14.01,2013-07-20 07:47:00,
2013-07-20 00:52:00,76.9,68.8,29.71,NNE,16,0.0,0.0,76,0.00,,---,0.00,VWS V14.01,2013-07-20 07:52:00,
2013-07-20 00:57:00,77.0,68.9,29.71,NNE,16,0.0,0.0,76,0.00,,---,0.00,VWS V14.01,2013-07-20 07:57:00,
2013-07-20 01:00:00,77.0,68.9,29.71,NNE,18,0.0,0.0,76,0.00,,---,0.00,VWS V14.01,2013-07-20 08:00:00,
2013-07-20 01:03:00,77.0,68.9,29.71,NNE,19,0.0,0.0,76,0.00,,---,0.00,VWS V14.01,2013-07-20 08:03:00,
2013-07-20 01:08:00,77.0,68.5,29.71,NNE,18,0.0,0.0,75,0.00,,---,0.00,VWS V14.01,2013-07-20 08:08:00,
2013-07-20 01:13:00,77.2,68.7,29.71,NNE,18,0.0,0.0,75,0.00,,---,0.00,VWS V14.01,2013-07-20 08:13:00,
2013-07-20 01:18:00,77.2,68.7,29.71,NNE,18,0.0,0.0,75,0.00,,---,0.00,VWS V14.01,2013-07-20 08:18:00,
2013-07-20 01:23:00,77.3,68.8,29.71,NNE,16,0.0,0.0,75,0.00,,---,0.00,VWS V14.01,2013-07-20 08:23:00,
2013-07-20 01:28:00,77.2,68.3,29.71,NNE,17,0.0,0.0,74,0.00,,---,0.00,VWS V14.01,2013-07-20 08:28:00,
2013-07-20 01:30:00,77.3,68.0,29.71,NNW,328,0.0,4.0,73,0.00,,---,0.00,VWS V14.01,2013-07-20 08:30:00,
2013-07-20 01:33:00,77.3,68.0,29.71,NNW,343,0.0,1.0,73,0.00,,---,0.00,VWS V14.01,2013-07-20 08:33:00,
2013-07-20 01:38:00,77.5,67.4,29.71,NW,304,5.0,5.0,71,0.00,,---,0.00,VWS V14.01,2013-07-20 08:38:00,
2013-07-20 01:43:00,77.7,66.7,29.71,North,357,1.0,5.0,69,0.00,,---,0.00,VWS V14.01,2013-07-20 08:43:00,
2013-07-20 01:49:00,77.9,66.1,29.71,WNW,287,1.0,5.0,67,0.00,,---,0.00,VWS V14.01,2013-07-20 08:49:00,
2013-07-20 01:54:00,78.3,66.4,29.71,West,267,0.0,5.0,67,0.00,,---,0.00,VWS V14.01,2013-07-20 08:54:00,
2013-07-20 01:59:00,78.2,66.8,29.71,SW,232,1.0,5.0,68,0.00,,---,0.00,VWS V14.01,2013-07-20 08:59:00,
2013-07-20 02:00:00,77.8,67.7,29.71,WSW,245,4.0,5.0,71,0.00,,---,0.00,VWS V14.01,2013-07-20 09:00:00,
2013-07-20 02:04:00,77.7,67.6,29.71,SW,229,1.0,4.0,71,0.00,,---,0.00,VWS V14.01,2013-07-20 09:04:00,
2013-07-20 02:09:00,77.2,67.1,29.71,WSW,249,2.0,6.0,71,0.00,,---,0.00,VWS V14.01,2013-07-20 09:09:00,
2013-07-20 02:14:00,76.9,66.4,29.71,SW,228,2.0,6.0,70,0.00,,---,0.00,VWS V14.01,2013-07-20 09:14:00,
2013-07-20 02:19:00,76.8,66.3,29.71,SSW,208,1.0,6.0,70,0.00,,---,0.00,VWS V14.01,2013-07-20 09:19:00,
2013-07-20 02:24:00,76.7,66.6,29.72,SW,224,0.0,6.0,71,0.00,,---,0.00,VWS V14.01,2013-07-20 09:24:00,
2013-07-20 02:29:00,76.7,66.2,29.72,SW,228,0.0,6.0,70,0.00,,---,0.00,VWS V14.01,2013-07-20 09:29:00,
2013-07-20 02:30:00,76.6,66.1,29.72,SW,228,0.0,6.0,70,0.00,,---,0.00,VWS V14.01,2013-07-20 09:30:00,
2013-07-20 02:35:00,76.6,66.1,29.72,SW,228,0.0,0.0,70,0.00,,---,0.00,VWS V14.01,2013-07-20 09:35:00,
2013-07-20 02:40:00,76.4,65.9,29.72,WSW,245,0.0,1.0,70,0.00,,---,0.00,VWS V14.01,2013-07-20 09:40:00,
2013-07-20 02:45:00,76.3,65.8,29.72,West,263,0.0,1.0,70,0.00,,---,0.00,VWS V14.01,2013-07-20 09:45:00,
2013-07-20 02:50:00,76.3,65.8,29.72,WSW,238,0.0,4.0,70,0.00,,---,0.00,VWS V14.01,2013-07-20 09:50:00,
2013-07-20 02:55:00,76.2,65.7,29.72,WSW,243,2.0,4.0,70,0.00,,---,0.00,VWS V14.01,2013-07-20 09:55:00,
2013-07-20 03:00:00,76.2,65.7,29.72,West,280,0.0,4.0,70,0.00,,---,0.00,VWS V14.01,2013-07-20 10:00:00,
2013-07-20 03:05:00,76.2,65.7,29.71,West,259,1.0,3.0,70,0.00,,---,0.00,VWS V14.01,2013-07-20 10:05:00,
2013-07-20 03:10:00,76.2,65.7,29.71,West,276,3.0,3.0,70,0.00,,---,0.00,VWS V14.01,2013-07-20 10:10:00,
2013-07-20 03:15:00,76.0,65.9,29.71,WSW,246,2.0,3.0,71,0.00,,---,0.00,VWS V14.01,2013-07-20 10:15:00,
2013-07-20 03:20:00,76.0,65.9,29.71,West,259,1.0,3.0,71,0.00,,---,0.00,VWS V14.01,2013-07-20 10:20:00,
2013-07-20 03:25:00,75.9,65.8,29.71,WSW,253,1.0,3.0,71,0.00,,---,0.00,VWS V14.01,2013-07-20 10:25:00,
2013-07-20 03:30:00,75.9,65.8,29.70,WSW,240,2.0,6.0,71,0.00,,---,0.00,VWS V14.01,2013-07-20 10:30:00,
2013-07-20 03:31:00,75.9,65.8,29.71,WNW,283,2.0,6.0,71,0.00,,---,0.00,VWS V14.01,2013-07-20 10:31:00,
2013-07-20 03:36:00,75.9,65.8,29.70,West,271,3.0,4.0,71,0.00,,---,0.00,VWS V14.01,2013-07-20 10:36:00,
2013-07-20 03:41:00,75.9,65.8,29.70,WSW,249,2.0,5.0,71,0.00,,---,0.00,VWS V14.01,2013-07-20 10:41:00,
2013-07-20 03:46:00,75.7,66.0,29.70,WSW,254,1.0,5.0,72,0.00,,---,0.00,VWS V14.01,2013-07-20 10:46:00,
2013-07-20 03:51:00,75.7,66.0,29.70,WSW,257,2.0,5.0,72,0.00,,---,0.00,VWS V14.01,2013-07-20 10:51:00,
2013-07-20 03:56:00,75.6,65.9,29.70,WSW,249,1.0,5.0,72,0.00,,---,0.00,VWS V14.01,2013-07-20 10:56:00,
2013-07-20 04:00:00,75.5,65.8,29.70,WSW,256,0.0,5.0,72,0.00,,---,0.00,VWS V14.01,2013-07-20 11:00:00,
2013-07-20 04:01:00,75.5,65.8,29.70,SSW,209,0.0,5.0,72,0.00,,---,0.00,VWS V14.01,2013-07-20 11:01:00,
2013-07-20 04:06:00,75.4,66.2,29.70,SSW,197,0.0,1.0,73,0.00,,---,0.00,VWS V14.01,2013-07-20 11:06:00,
2013-07-20 04:11:00,75.0,66.2,29.70,SW,222,0.0,1.0,74,0.00,,---,0.00,VWS V14.01,2013-07-20 11:11:00,
2013-07-20 04:16:00,74.8,66.3,29.70,SW,222,0.0,1.0,75,0.00,,---,0.00,VWS V14.01,2013-07-20 11:16:00,
2013-07-20 04:22:00,74.6,66.2,29.70,SSE,164,0.0,1.0,75,0.00,,---,0.00,VWS V14.01,2013-07-20 11:22:00,
2013-07-20 04:27:00,74.4,66.0,29.70,SW,236,0.0,2.0,75,0.00,,---,0.00,VWS V14.01,2013-07-20 11:27:00,
2013-07-20 04:30:00,74.3,66.2,29.70,SSE,153,1.0,2.0,76,0.00,,---,0.00,VWS V14.01,2013-07-20 11:30:00,
2013-07-20 04:32:00,74.3,66.2,29.70,WSW,250,0.0,2.0,76,0.00,,---,0.00,VWS V14.01,2013-07-20 11:32:00,
2013-07-20 04:37:00,74.3,66.2,29.70,WSW,239,0.0,2.0,76,0.00,,---,0.00,VWS V14.01,2013-07-20 11:37:00,
2013-07-20 04:42:00,74.2,66.2,29.70,WSW,239,1.0,3.0,76,0.00,,---,0.00,VWS V14.01,2013-07-20 11:42:00,
2013-07-20 04:47:00,73.9,66.2,29.70,WSW,245,2.0,3.0,77,0.00,,---,0.00,VWS V14.01,2013-07-20 11:47:00,
2013-07-20 04:52:00,73.8,66.2,29.69,SW,236,2.0,3.0,77,0.00,,---,0.00,VWS V14.01,2013-07-20 11:52:00,
2013-07-20 04:57:00,73.8,66.2,29.70,SW,231,0.0,3.0,77,0.00,,---,0.00,VWS V14.01,2013-07-20 11:57:00,
2013-07-20 05:00:00,73.6,66.3,29.70,SW,233,1.0,3.0,78,0.00,,---,0.00,VWS V14.01,2013-07-20 12:00:00,
2013-07-20 05:02:00,73.6,66.3,29.69,WSW,239,2.0,3.0,78,0.00,,---,0.00,VWS V14.01,2013-07-20 12:02:00,
2013-07-20 05:08:00,73.5,66.2,29.70,SSE,165,0.0,1.0,78,0.00,,---,0.00,VWS V14.01,2013-07-20 12:08:00,
2013-07-20 05:13:00,73.5,66.2,29.70,SSE,159,0.0,1.0,78,0.00,,---,0.00,VWS V14.01,2013-07-20 12:13:00,
2013-07-20 05:18:00,73.2,66.3,29.70,SSE,159,0.0,1.0,79,0.00,,---,0.00,VWS V14.01,2013-07-20 12:18:00,
2013-07-20 05:23:00,73.1,66.2,29.71,SSE,165,0.0,1.0,79,0.00,,---,0.00,VWS V14.01,2013-07-20 12:23:00,
2013-07-20 05:28:00,73.1,66.2,29.71,WSW,244,0.0,1.0,79,0.00,,---,0.00,VWS V14.01,2013-07-20 12:28:00,
2013-07-20 05:30:00,73.0,66.1,29.71,WSW,245,0.0,1.0,79,0.00,,---,0.00,VWS V14.01,2013-07-20 12:30:00,
2013-07-20 05:33:00,73.0,66.1,29.71,WSW,244,0.0,0.0,79,0.00,,---,0.00,VWS V14.01,2013-07-20 12:33:00,
2013-07-20 05:38:00,72.8,66.3,29.71,WSW,250,0.0,0.0,80,0.00,,---,0.00,VWS V14.01,2013-07-20 12:38:00,
2013-07-20 05:43:00,72.8,66.3,29.71,WSW,250,0.0,3.0,80,0.00,,---,0.00,VWS V14.01,2013-07-20 12:43:00,
2013-07-20 05:48:00,72.8,66.3,29.71,SW,221,0.0,3.0,80,0.00,,---,0.00,VWS V14.01,2013-07-20 12:48:00,
2013-07-20 05:53:00,72.7,66.2,29.72,SW,235,0.0,4.0,80,0.00,,---,0.00,VWS V14.01,2013-07-20 12:53:00,
2013-07-20 05:59:00,72.8,66.3,29.72,West,265,1.0,4.0,80,0.00,,---,0.00,VWS V14.01,2013-07-20 12:59:00,
2013-07-20 06:00:00,72.9,66.4,29.73,WSW,256,0.0,4.0,80,0.00,,---,0.00,VWS V14.01,2013-07-20 13:00:00,
2013-07-20 06:04:00,73.0,66.5,29.72,SW,236,0.0,0.0,80,0.00,,---,0.00,VWS V14.01,2013-07-20 13:04:00,
2013-07-20 06:09:00,73.1,66.6,29.73,SW,233,0.0,4.0,80,0.00,,---,0.00,VWS V14.01,2013-07-20 13:09:00,
2013-07-20 06:14:00,73.2,66.7,29.73,SW,231,0.0,4.0,80,0.00,,---,0.00,VWS V14.01,2013-07-20 13:14:00,
2013-07-20 06:19:00,73.4,66.9,29.74,West,259,3.0,5.0,80,0.00,,---,0.00,VWS V14.01,2013-07-20 13:19:00,
2013-07-20 06:24:00,73.9,67.0,29.74,WSW,243,4.0,5.0,79,0.00,,---,0.00,VWS V14.01,2013-07-20 13:24:00,
2013-07-20 06:29:00,74.3,67.0,29.75,West,273,3.0,5.0,78,0.00,,---,0.00,VWS V14.01,2013-07-20 13:29:00,
2013-07-20 06:30:00,74.5,66.8,29.75,WNW,293,4.0,5.0,77,0.00,,---,0.00,VWS V14.01,2013-07-20 13:30:00,
2013-07-20 06:34:00,74.6,66.9,29.75,West,276,2.0,4.0,77,0.00,,---,0.00,VWS V14.01,2013-07-20 13:34:00,
2013-07-20 06:39:00,74.8,67.1,29.76,WSW,255,1.0,5.0,77,0.00,,---,0.00,VWS V14.01,2013-07-20 13:39:00,
2013-07-20 06:44:00,74.8,67.1,29.76,SW,215,0.0,5.0,77,0.00,,---,0.00,VWS V14.01,2013-07-20 13:44:00,
2013-07-20 06:50:00,75.0,66.9,29.76,SW,233,0.0,5.0,76,0.00,,---,0.00,VWS V14.01,2013-07-20 13:50:00,
2013-07-20 06:55:00,75.3,67.2,29.76,SW,233,0.0,5.0,76,0.00,,---,0.00,VWS V14.01,2013-07-20 13:55:00,
2013-07-20 07:00:00,75.5,67.0,29.76,SSW,212,0.0,5.0,75,0.00,,---,0.00,VWS V14.01,2013-07-20 14:00:00,
2013-07-20 07:05:00,75.3,66.8,29.76,SW,217,0.0,0.0,75,0.00,,---,0.00,VWS V14.01,2013-07-20 14:05:00,
2013-07-20 07:10:00,75.5,67.0,29.76,SW,217,0.0,0.0,75,0.00,,---,0.00,VWS V14.01,2013-07-20 14:10:00,
2013-07-20 07:15:00,75.8,66.9,29.76,SW,222,0.0,0.0,74,0.00,,---,0.00,VWS V14.01,2013-07-20 14:15:00,
2013-07-20 07:20:00,76.1,67.2,29.76,SW,222,0.0,0.0,74,0.00,,---,0.00,VWS V14.01,2013-07-20 14:20:00,
2013-07-20 07:25:00,77.2,67.9,29.76,SW,220,0.0,0.0,73,0.00,,---,0.00,VWS V14.01,2013-07-20 14:25:00,
2013-07-20 07:30:00,78.1,67.9,29.77,South,189,0.0,0.0,71,0.00,,---,0.00,VWS V14.01,2013-07-20 14:30:00,
2013-07-20 07:36:00,78.7,67.7,29.77,SE,125,0.0,0.0,69,0.00,,---,0.00,VWS V14.01,2013-07-20 14:36:00,
2013-07-20 07:41:00,79.0,67.6,29.77,SE,127,0.0,0.0,68,0.00,,---,0.00,VWS V14.01,2013-07-20 14:41:00,
2013-07-20 07:46:00,79.9,68.0,29.77,SE,127,0.0,0.0,67,0.00,,---,0.00,VWS V14.01,2013-07-20 14:46:00,
2013-07-20 07:51:00,80.3,67.5,29.77,SW,219,0.0,0.0,65,0.00,,---,0.00,VWS V14.01,2013-07-20 14:51:00,
2013-07-20 07:56:00,80.2,67.4,29.77,SW,224,1.0,4.0,65,0.00,,---,0.00,VWS V14.01,2013-07-20 14:56:00,
2013-07-20 08:00:00,80.1,67.3,29.77,SW,224,0.0,4.0,65,0.00,,---,0.00,VWS V14.01,2013-07-20 15:00:00,
2013-07-20 08:01:00,80.2,67.4,29.77,SW,222,1.0,4.0,65,0.00,,---,0.00,VWS V14.01,2013-07-20 15:01:00,
2013-07-20 08:06:00,80.3,67.5,29.77,WSW,250,0.0,1.0,65,0.00,,---,0.00,VWS V14.01,2013-07-20 15:06:00,
2013-07-20 08:11:00,80.7,67.4,29.77,North,3,1.0,5.0,64,0.00,,---,0.00,VWS V14.01,2013-07-20 15:11:00,
2013-07-20 08:16:00,81.3,67.5,29.77,NW,315,0.0,5.0,63,0.00,,---,0.00,VWS V14.01,2013-07-20 15:16:00,
2013-07-20 08:21:00,81.5,67.2,29.77,NNE,19,0.0,5.0,62,0.00,,---,0.00,VWS V14.01,2013-07-20 15:21:00,
2013-07-20 08:26:00,81.5,66.8,29.76,NE,42,0.0,5.0,61,0.00,,---,0.00,VWS V14.01,2013-07-20 15:26:00,
2013-07-20 08:30:00,82.3,67.5,29.76,North,355,0.0,5.0,61,0.00,,---,0.00,VWS V14.01,2013-07-20 15:30:00,
2013-07-20 08:31:00,82.0,67.7,29.76,East,87,0.0,5.0,62,0.00,,---,0.00,VWS V14.01,2013-07-20 15:31:00,
2013-07-20 08:37:00,82.8,67.5,29.76,NW,307,2.0,4.0,60,0.00,,---,0.00,VWS V14.01,2013-07-20 15:37:00,
2013-07-20 08:42:00,83.6,67.8,29.76,North,355,0.0,5.0,59,0.00,,---,0.00,VWS V14.01,2013-07-20 15:42:00,
2013-07-20 08:47:00,84.4,67.5,29.76,NE,41,0.0,5.0,57,0.00,,---,0.00,VWS V14.01,2013-07-20 15:47:00,
2013-07-20 08:52:00,84.4,67.5,29.76,West,278,1.0,5.0,57,0.00,,---,0.00,VWS V14.01,2013-07-20 15:52:00,
2013-07-20 08:57:00,83.6,67.3,29.76,West,277,2.0,5.0,58,0.00,,---,0.00,VWS V14.01,2013-07-20 15:57:00,
2013-07-20 09:00:00,82.2,66.9,29.76,WSW,258,4.0,7.0,60,0.00,,---,0.00,VWS V14.01,2013-07-20 16:00:00,
2013-07-20 09:02:00,82.5,66.7,29.76,WSW,256,5.0,7.0,59,0.00,,---,0.00,VWS V14.01,2013-07-20 16:02:00,
2013-07-20 09:07:00,81.4,66.7,29.76,West,262,1.0,5.0,61,0.00,,---,0.00,VWS V14.01,2013-07-20 16:07:00,
2013-07-20 09:12:00,81.1,66.9,29.76,WSW,249,3.0,5.0,62,0.00,,---,0.00,VWS V14.01,2013-07-20 16:12:00,
2013-07-20 09:17:00,80.9,66.7,29.76,WSW,253,3.0,5.0,62,0.00,,---,0.00,VWS V14.01,2013-07-20 16:17:00,
2013-07-20 09:22:00,80.7,66.9,29.75,WSW,253,4.0,5.0,63,0.00,,---,0.00,VWS V14.01,2013-07-20 16:22:00,
2013-07-20 09:28:00,81.2,66.9,29.75,West,267,1.0,6.0,62,0.00,,---,0.00,VWS V14.01,2013-07-20 16:28:00,
2013-07-20 09:30:00,81.5,66.8,29.75,WSW,251,1.0,6.0,61,0.00,,---,0.00,VWS V14.01,2013-07-20 16:30:00,
2013-07-20 09:33:00,81.5,67.2,29.75,NNW,340,2.0,6.0,62,0.00,,---,0.00,VWS V14.01,2013-07-20 16:33:00,
2013-07-20 09:38:00,81.5,67.2,29.75,WSW,238,2.0,7.0,62,0.00,,---,0.00,VWS V14.01,2013-07-20 16:38:00,
2013-07-20 09:43:00,81.2,66.9,29.75,NNW,330,0.0,7.0,62,0.00,,---,0.00,VWS V14.01,2013-07-20 16:43:00,
2013-07-20 09:48:00,81.7,66.9,29.75,West,266,0.0,7.0,61,0.00,,---,0.00,VWS V14.01,2013-07-20 16:48:00,
2013-07-20 09:53:00,82.3,67.0,29.75,NW,308,0.0,7.0,60,0.00,,---,0.00,VWS V14.01,2013-07-20 16:53:00,
2013-07-20 09:58:00,82.7,67.4,29.75,ENE,70,1.0,7.0,60,0.00,,---,0.00,VWS V14.01,2013-07-20 16:58:00,
2013-07-20 10:00:00,82.8,67.5,29.75,WNW,298,3.0,7.0,60,0.00,,---,0.00,VWS V14.01,2013-07-20 17:00:00,
2013-07-20 10:03:00,82.8,67.5,29.75,West,270,1.0,3.0,60,0.00,,---,0.00,VWS V14.01,2013-07-20 17:03:00,
2013-07-20 10:08:00,83.1,67.3,29.75,NW,325,1.0,6.0,59,0.00,,---,0.00,VWS V14.01,2013-07-20 17:08:00,
2013-07-20 10:14:00,83.2,67.4,29.75,NNW,342,1.0,6.0,59,0.00,,---,0.00,VWS V14.01,2013-07-20 17:14:00,
2013-07-20 10:19:00,83.5,67.2,29.75,NNE,22,2.0,6.0,58,0.00,,---,0.00,VWS V14.01,2013-07-20 17:19:00,
2013-07-20 10:24:00,83.3,67.5,29.75,NW,318,1.0,6.0,59,0.00,,---,0.00,VWS V14.01,2013-07-20 17:24:00,
2013-07-20 10:29:00,82.8,67.5,29.74,WSW,247,2.0,6.0,60,0.00,,---,0.00,VWS V14.01,2013-07-20 17:29:00,
2013-07-20 10:30:00,82.8,67.5,29.74,West,260,3.0,6.0,60,0.00,,---,0.00,VWS V15.00,2013-07-20 17:30:00,
2013-07-20 10:34:00,82.8,67.5,29.74,North,1,1.0,4.0,60,0.00,,---,0.00,VWS V14.01,2013-07-20 17:34:00,
2013-07-20 10:39:00,83.0,67.7,29.74,NNE,32,1.0,4.0,60,0.00,,---,0.00,VWS V14.01,2013-07-20 17:39:00,
2013-07-20 10:44:00,83.6,67.8,29.74,NNW,328,1.0,4.0,59,0.00,,---,0.00,VWS V14.01,2013-07-20 17:44:00,
2013-07-20 10:49:00,84.1,67.7,29.73,NE,51,2.0,4.0,58,0.00,,---,0.00,VWS V14.01,2013-07-20 17:49:00,
2013-07-20 10:54:00,84.5,67.1,29.73,NNE,33,2.0,6.0,56,0.00,,---,0.00,VWS V14.01,2013-07-20 17:54:00,
2013-07-20 10:59:00,85.3,66.8,29.73,ENE,77,1.0,7.0,54,0.00,,---,0.00,VWS V14.01,2013-07-20 17:59:00,
2013-07-20 11:00:00,85.9,66.8,29.73,SW,224,0.0,7.0,53,0.00,,---,0.00,VWS V14.01,2013-07-20 18:00:00,
2013-07-20 11:04:00,86.1,67.0,29.73,WSW,248,0.0,1.0,53,0.00,,---,0.00,VWS V14.01,2013-07-20 18:04:00,
2013-07-20 11:09:00,86.6,67.4,29.73,NE,41,0.0,3.0,53,0.00,,---,0.00,VWS V14.01,2013-07-20 18:09:00,
2013-07-20 11:14:00,87.6,67.2,29.72,NW,321,3.0,7.0,51,0.00,,---,0.00,VWS V14.01,2013-07-20 18:14:00,
2013-07-20 11:19:00,88.4,67.4,29.72,North,349,1.0,7.0,50,0.00,,---,0.00,VWS V14.01,2013-07-20 18:19:00,
2013-07-20 11:24:00,87.7,66.2,29.72,North,7,0.0,7.0,49,0.00,,---,0.00,VWS V14.01,2013-07-20 18:24:00,
2013-07-20 11:30:00,87.6,67.2,29.72,NE,44,3.0,7.0,51,0.00,,---,0.00,VWS V14.01,2013-07-20 18:30:00,
2013-07-20 11:35:00,88.9,66.7,29.71,West,277,1.0,3.0,48,0.00,,---,0.00,VWS V14.01,2013-07-20 18:35:00,
2013-07-20 11:40:00,90.3,67.3,29.71,NNE,16,2.0,3.0,47,0.00,,---,0.00,VWS V14.01,2013-07-20 18:40:00,
2013-07-20 11:45:00,90.8,67.2,29.70,ENE,62,1.0,4.0,46,0.00,,---,0.00,VWS V14.01,2013-07-20 18:45:00,
2013-07-20 11:50:00,91.0,66.7,29.70,SW,236,0.0,4.0,45,0.00,,---,0.00,VWS V14.01,2013-07-20 18:50:00,
2013-07-20 11:56:00,90.7,67.1,29.70,SW,235,0.0,4.0,46,0.00,,---,0.00,VWS V14.01,2013-07-20 18:56:00,
2013-07-20 12:00:00,89.6,65.5,29.69,ENE,64,1.0,8.0,45,0.00,,---,0.00,VWS V15.00,2013-07-20 19:00:00,
2013-07-20 12:01:00,90.3,66.1,29.69,NE,43,8.0,8.0,45,0.00,,---,0.00,VWS V14.01,2013-07-20 19:01:00,
2013-07-20 12:06:00,89.2,65.7,29.69,NE,50,4.0,11.0,46,0.00,,---,0.00,VWS V14.01,2013-07-20 19:06:00,
2013-07-20 12:12:00,89.3,65.8,29.69,ESE,111,3.0,11.0,46,0.00,,---,0.00,VWS V14.01,2013-07-20 19:12:00,
2013-07-20 12:17:00,90.5,66.3,29.69,SE,143,1.0,11.0,45,0.00,,---,0.00,VWS V14.01,2013-07-20 19:17:00,
2013-07-20 12:22:00,90.7,65.8,29.68,North,8,6.0,13.0,44,0.00,,---,0.00,VWS V14.01,2013-07-20 19:22:00,
2013-07-20 12:27:00,91.2,66.9,29.68,North,349,3.0,13.0,45,0.00,,---,0.00,VWS V14.01,2013-07-20 19:27:00,
2013-07-20 12:30:00,91.5,65.9,29.67,NNE,30,2.0,13.0,43,0.00,,---,0.00,VWS V14.01,2013-07-20 19:30:00,
2013-07-20 12:32:00,91.6,66.0,29.67,NE,56,3.0,13.0,43,0.00,,---,0.00,VWS V14.01,2013-07-20 19:32:00,
2013-07-20 12:37:00,91.3,66.3,29.67,NE,40,2.0,3.0,44,0.00,,---,0.00,VWS V14.01,2013-07-20 19:37:00,
2013-07-20 12:42:00,91.4,66.4,29.67,NE,45,0.0,3.0,44,0.00,,---,0.00,VWS V14.01,2013-07-20 19:42:00,
2013-07-20 12:47:00,91.2,66.3,29.67,NE,42,2.0,4.0,44,0.00,,---,0.00,VWS V14.01,2013-07-20 19:47:00,
2013-07-20 12:52:00,91.4,65.8,29.67,NE,43,0.0,5.0,43,0.00,,---,0.00,VWS V14.01,2013-07-20 19:52:00,
2013-07-20 12:58:00,92.2,65.8,29.66,West,273,4.0,5.0,42,0.00,,---,0.00,VWS V14.01,2013-07-20 19:58:00,
2013-07-20 13:00:00,92.2,66.5,29.66,NW,316,3.0,5.0,43,0.00,,---,0.00,VWS V14.01,2013-07-20 20:00:00,
2013-07-20 13:03:00,92.2,66.5,29.66,NW,316,3.0,5.0,43,0.00,,---,0.00,VWS V14.01,2013-07-20 20:03:00,
2013-07-20 13:09:00,92.4,66.0,29.66,WNW,285,3.0,7.0,42,0.00,,---,0.00,VWS V14.01,2013-07-20 20:09:00,
2013-07-20 13:14:00,91.1,66.2,29.65,West,267,4.0,7.0,44,0.00,,---,0.00,VWS V14.01,2013-07-20 20:14:00,
2013-07-20 13:20:00,90.6,66.4,29.65,WSW,245,0.0,7.0,45,0.00,,---,0.00,VWS V14.01,2013-07-20 20:20:00,
2013-07-20 13:26:00,90.4,66.2,29.64,SSW,200,4.0,7.0,45,0.00,,---,0.00,VWS V14.01,2013-07-20 20:26:00,
2013-07-20 13:30:00,90.5,66.3,29.64,SSW,197,2.0,7.0,45,0.00,,---,0.00,VWS V15.00,2013-07-20 20:30:00,
2013-07-20 13:31:00,90.5,65.6,29.64,WSW,257,1.0,7.0,44,0.00,,---,0.00,VWS V14.01,2013-07-20 20:31:00,
2013-07-20 13:36:00,90.7,66.5,29.64,SSW,194,2.0,5.0,45,0.00,,---,0.00,VWS V14.01,2013-07-20 20:36:00,
2013-07-20 13:41:00,90.2,66.0,29.65,East,86,2.0,6.0,45,0.00,,---,0.00,VWS V14.01,2013-07-20 20:41:00,
2013-07-20 13:46:00,84.7,62.9,29.64,East,88,12.0,23.0,48,0.00,,---,0.00,VWS V14.01,2013-07-20 20:46:00,
2013-07-20 13:52:00,77.8,68.9,29.65,East,81,0.0,23.0,74,0.18,,---,0.18,VWS V14.01,2013-07-20 20:52:00,
2013-07-20 13:57:00,76.5,69.1,29.65,SW,215,0.0,23.0,78,0.25,,---,0.25,VWS V14.01,2013-07-20 20:57:00,
2013-07-20 14:00:00,75.9,70.4,29.64,WSW,246,3.0,23.0,83,0.28,,---,0.28,VWS V14.01,2013-07-20 21:00:00,
2013-07-20 14:02:00,75.9,70.4,29.64,WSW,249,2.0,23.0,83,0.28,,---,0.28,VWS V14.01,2013-07-20 21:02:00,
2013-07-20 14:08:00,76.2,69.2,29.64,NW,311,0.0,6.0,79,0.28,,---,0.28,VWS V14.01,2013-07-20 21:08:00,
2013-07-20 14:13:00,76.4,70.5,29.65,WSW,257,1.0,6.0,82,0.29,,---,0.29,VWS V14.01,2013-07-20 21:13:00,
2013-07-20 14:19:00,76.4,70.1,29.65,WNW,284,5.0,6.0,81,0.29,,---,0.29,VWS V14.01,2013-07-20 21:19:00,
2013-07-20 14:24:00,76.3,69.7,29.64,WNW,285,6.0,6.0,80,0.29,,---,0.29,VWS V14.01,2013-07-20 21:24:00,
2013-07-20 14:29:00,75.9,68.9,29.64,WSW,255,4.0,8.0,79,0.29,,---,0.29,VWS V14.01,2013-07-20 21:29:00,
2013-07-20 14:30:00,75.6,69.4,29.63,West,259,0.0,8.0,81,0.29,,---,0.29,VWS V14.01,2013-07-20 21:30:00,
2013-07-20 14:34:00,75.5,69.3,29.63,WSW,245,0.0,2.0,81,0.29,,---,0.29,VWS V14.01,2013-07-20 21:34:00,
2013-07-20 14:39:00,75.9,70.0,29.63,West,266,2.0,6.0,82,0.29,,---,0.29,VWS V14.01,2013-07-20 21:39:00,
2013-07-20 14:44:00,76.6,70.3,29.63,WNW,295,1.0,6.0,81,0.29,,---,0.29,VWS V14.01,2013-07-20 21:44:00,
2013-07-20 14:49:00,77.0,69.6,29.64,NNW,333,1.0,6.0,78,0.29,,---,0.29,VWS V14.01,2013-07-20 21:49:00,
2013-07-20 14:54:00,77.5,70.8,29.63,SSW,203,0.0,6.0,80,0.29,,---,0.29,VWS V14.01,2013-07-20 21:54:00,
2013-07-20 14:59:00,77.6,70.2,29.63,SSE,167,0.0,6.0,78,0.29,,---,0.29,VWS V14.01,2013-07-20 21:59:00,
2013-07-20 15:00:00,77.9,70.9,29.63,SSE,159,0.0,6.0,79,0.29,,---,0.29,VWS V14.01,2013-07-20 22:00:00,
2013-07-20 15:05:00,77.8,70.0,29.63,ENE,68,3.0,3.0,77,0.01,,---,0.29,VWS V14.01,2013-07-20 22:05:00,
2013-07-20 15:10:00,78.0,69.1,29.62,West,265,0.0,5.0,74,0.01,,---,0.29,VWS V14.01,2013-07-20 22:10:00,
2013-07-20 15:15:00,78.5,69.1,29.63,West,264,0.0,5.0,73,0.01,,---,0.29,VWS V14.01,2013-07-20 22:15:00,
2013-07-20 15:20:00,78.2,69.6,29.62,East,91,0.0,5.0,75,0.01,,---,0.29,VWS V14.01,2013-07-20 22:20:00,
2013-07-20 15:25:00,78.0,70.6,29.63,SSE,152,2.0,5.0,78,0.01,,---,0.29,VWS V14.01,2013-07-20 22:25:00,
2013-07-20 15:30:00,78.1,68.8,29.66,SSW,198,4.0,8.0,73,0.01,,---,0.29,VWS V15.00,2013-07-20 22:30:00,
2013-07-20 15:31:00,78.1,68.8,29.65,South,179,4.0,8.0,73,0.01,,---,0.29,VWS V14.01,2013-07-20 22:31:00,
2013-07-20 15:36:00,78.3,68.5,29.67,SE,134,7.0,11.0,72,0.00,,---,0.29,VWS V14.01,2013-07-20 22:36:00,
2013-07-20 15:41:00,76.6,67.7,29.67,SSE,156,10.0,18.0,74,0.00,,---,0.29,VWS V14.01,2013-07-20 22:41:00,
2013-07-20 15:47:00,75.4,67.7,29.67,SE,130,4.0,18.0,77,0.00,,---,0.29,VWS V14.01,2013-07-20 22:47:00,
2013-07-20 15:52:00,75.0,67.3,29.67,South,178,11.0,18.0,77,0.00,,---,0.29,VWS V14.01,2013-07-20 22:52:00,
2013-07-20 15:57:00,74.6,67.7,29.67,South,173,6.0,18.0,79,0.00,,---,0.29,VWS V14.01,2013-07-20 22:57:00,
2013-07-20 16:00:00,74.2,67.3,29.67,SSW,192,6.0,18.0,79,0.00,,---,0.29,VWS V14.01,2013-07-20 23:00:00,
2013-07-20 16:02:00,74.3,67.4,29.67,South,174,8.0,18.0,79,0.00,,---,0.29,VWS V14.01,2013-07-20 23:02:00,
2013-07-20 16:07:00,74.1,67.2,29.67,SSE,153,8.0,13.0,79,0.00,,---,0.29,VWS V14.01,2013-07-20 23:07:00,
2013-07-20 16:12:00,73.9,67.3,29.67,SW,219,3.0,13.0,80,0.00,,---,0.29,VWS V14.01,2013-07-20 23:12:00,
2013-07-20 16:18:00,73.6,67.4,29.67,SSW,203,3.0,13.0,81,0.00,,---,0.29,VWS V14.01,2013-07-20 23:18:00,
2013-07-20 16:23:00,73.5,67.7,29.67,WSW,252,8.0,13.0,82,0.00,,---,0.29,VWS V14.01,2013-07-20 23:23:00,
2013-07-20 16:28:00,73.5,67.7,29.66,SW,228,7.0,13.0,82,0.00,,---,0.29,VWS V14.01,2013-07-20 23:28:00,
2013-07-20 16:30:00,73.6,67.8,29.66,South,169,3.0,13.0,82,0.00,,---,0.29,VWS V14.01,2013-07-20 23:30:00,
2013-07-20 16:33:00,73.6,67.8,29.66,South,169,5.0,5.0,82,0.00,,---,0.29,VWS V14.01,2013-07-20 23:33:00,
2013-07-20 16:38:00,73.9,67.7,29.65,WSW,238,10.0,10.0,81,0.00,,---,0.29,VWS V14.01,2013-07-20 23:38:00,
2013-07-20 16:43:00,74.0,67.8,29.65,SW,215,7.0,12.0,81,0.00,,---,0.29,VWS V14.01,2013-07-20 23:43:00,
2013-07-20 16:48:00,74.4,67.8,29.65,WSW,254,2.0,12.0,80,0.00,,---,0.29,VWS V14.01,2013-07-20 23:48:00,
2013-07-20 16:53:00,74.7,68.1,29.65,West,269,3.0,12.0,80,0.00,,---,0.29,VWS V14.01,2013-07-20 23:53:00,
2013-07-20 16:59:00,75.1,68.2,29.66,WSW,245,1.0,12.0,79,0.00,,---,0.29,VWS V14.01,2013-07-20 23:59:00,
2013-07-20 17:00:00,75.3,67.6,29.66,West,262,1.0,12.0,77,0.00,,---,0.29,VWS V14.01,2013-07-21 00:00:00,
2013-07-20 17:04:00,75.3,68.0,29.66,West,262,0.0,0.0,78,0.00,,---,0.29,VWS V14.01,2013-07-21 00:04:00,
2013-07-20 17:09:00,75.7,68.0,29.66,NE,40,1.0,4.0,77,0.00,,---,0.29,VWS V14.01,2013-07-21 00:09:00,
2013-07-20 17:14:00,76.1,68.4,29.66,NW,310,2.0,5.0,77,0.00,,---,0.29,VWS V14.01,2013-07-21 00:14:00,
2013-07-20 17:19:00,76.1,68.4,29.66,WNW,290,4.0,8.0,77,0.00,,---,0.29,VWS V14.01,2013-07-21 00:19:00,
2013-07-20 17:25:00,75.9,68.2,29.65,NW,314,2.0,8.0,77,0.00,,---,0.29,VWS V14.01,2013-07-21 00:25:00,
2013-07-20 17:30:00,75.9,68.2,29.66,NNW,337,2.0,8.0,77,0.00,,---,0.29,VWS V14.01,2013-07-21 00:30:00,
2013-07-20 17:35:00,75.9,68.2,29.66,NNE,22,3.0,3.0,77,0.00,,---,0.29,VWS V14.01,2013-07-21 00:35:00,
2013-07-20 17:40:00,75.9,68.2,29.66,North,1,0.0,4.0,77,0.00,,---,0.29,VWS V14.01,2013-07-21 00:40:00,
2013-07-20 17:45:00,76.1,68.0,29.66,NE,36,1.0,4.0,76,0.00,,---,0.29,VWS V14.01,2013-07-21 00:45:00,
2013-07-20 17:50:00,76.2,68.1,29.67,NW,316,1.0,4.0,76,0.00,,---,0.29,VWS V14.01,2013-07-21 00:50:00,
2013-07-20 17:55:00,76.3,67.8,29.67,NNW,332,2.0,4.0,75,0.00,,---,0.29,VWS V14.01,2013-07-21 00:55:00,
2013-07-20 18:00:00,76.6,67.7,29.67,NNW,328,0.0,4.0,74,0.00,,---,0.29,VWS V14.01,2013-07-21 01:00:00,
2013-07-20 18:05:00,76.8,67.9,29.66,West,271,0.0,0.0,74,0.00,,---,0.29,VWS V14.01,2013-07-21 01:05:00,
2013-07-20 18:11:00,76.8,68.3,29.66,WSW,246,4.0,5.0,75,0.00,,---,0.29,VWS V14.01,2013-07-21 01:11:00,
2013-07-20 18:16:00,76.9,68.0,29.66,SW,226,6.0,7.0,74,0.00,,---,0.29,VWS V14.01,2013-07-21 01:16:00,
2013-07-20 18:21:00,76.8,67.5,29.66,SSW,197,5.0,7.0,73,0.00,,---,0.29,VWS V14.01,2013-07-21 01:21:00,
2013-07-20 18:26:00,76.9,66.4,29.67,SSW,212,4.0,9.0,70,0.00,,---,0.29,VWS V14.01,2013-07-21 01:26:00,
2013-07-20 18:30:00,76.8,66.3,29.67,SW,232,3.0,10.0,70,0.00,,---,0.29,VWS V15.00,2013-07-21 01:30:00,
2013-07-20 18:31:00,76.8,66.3,29.67,SW,215,2.0,10.0,70,0.00,,---,0.29,VWS V14.01,2013-07-21 01:31:00,
2013-07-20 18:36:00,76.8,66.3,29.67,SSE,165,6.0,9.0,70,0.00,,---,0.29,VWS V14.01,2013-07-21 01:36:00,
2013-07-20 18:42:00,76.7,66.2,29.68,SW,222,2.0,9.0,70,0.00,,---,0.29,VWS V14.01,2013-07-21 01:42:00,
2013-07-20 18:47:00,76.8,66.3,29.68,SSW,194,5.0,9.0,70,0.00,,---,0.29,VWS V14.01,2013-07-21 01:47:00,
2013-07-20 18:52:00,76.8,66.3,29.68,SW,220,2.0,9.0,70,0.00,,---,0.29,VWS V14.01,2013-07-21 01:52:00,
2013-07-20 18:57:00,76.7,66.2,29.68,SW,226,7.0,9.0,70,0.00,,---,0.29,VWS V14.01,2013-07-21 01:57:00,
2013-07-20 19:00:00,76.6,66.5,29.69,South,186,0.0,9.0,71,0.00,,---,0.29,VWS V14.01,2013-07-21 02:00:00,
2013-07-20 19:03:00,76.6,66.5,29.69,South,186,1.0,9.0,71,0.00,,---,0.29,VWS V14.01,2013-07-21 02:03:00,
2013-07-20 19:08:00,76.5,66.4,29.69,WSW,254,3.0,5.0,71,0.00,,---,0.29,VWS V14.01,2013-07-21 02:08:00,
2013-07-20 19:13:00,76.4,66.3,29.70,SW,214,3.0,5.0,71,0.00,,---,0.29,VWS V14.01,2013-07-21 02:13:00,
2013-07-20 19:18:00,76.3,66.6,29.69,SW,215,3.0,5.0,72,0.00,,---,0.29,VWS V14.01,2013-07-21 02:18:00,
2013-07-20 19:23:00,76.2,66.9,29.69,WSW,248,3.0,5.0,73,0.00,,---,0.29,VWS V14.01,2013-07-21 02:23:00,
2013-07-20 19:28:00,76.0,66.7,29.70,WSW,250,2.0,5.0,73,0.00,,---,0.29,VWS V14.01,2013-07-21 02:28:00,
2013-07-20 19:30:00,75.8,66.5,29.69,SW,233,4.0,7.0,73,0.00,,---,0.29,VWS V14.01,2013-07-21 02:30:00,
2013-07-20 19:34:00,75.8,66.5,29.69,WSW,257,5.0,6.0,73,0.00,,---,0.29,VWS V14.01,2013-07-21 02:34:00,
2013-07-20 19:39:00,75.7,66.4,29.69,SW,222,2.0,7.0,73,0.00,,---,0.29,VWS V14.01,2013-07-21 02:39:00,
2013-07-20 19:44:00,75.5,67.0,29.70,SW,229,3.0,7.0,75,0.00,,---,0.29,VWS V14.01,2013-07-21 02:44:00,
2013-07-20 19:49:00,75.3,66.8,29.70,SSW,203,4.0,7.0,75,0.00,,---,0.29,VWS V14.01,2013-07-21 02:49:00,
2013-07-20 19:54:00,75.3,67.2,29.70,WSW,248,3.0,7.0,76,0.00,,---,0.29,VWS V14.01,2013-07-21 02:54:00,
2013-07-20 19:59:00,75.3,67.2,29.71,WSW,243,1.0,7.0,76,0.00,,---,0.29,VWS V14.01,2013-07-21 02:59:00,
2013-07-20 20:00:00,75.2,67.1,29.71,SW,231,2.0,7.0,76,0.00,,---,0.29,VWS V14.01,2013-07-21 03:00:00,
2013-07-20 20:04:00,75.2,67.1,29.71,SW,224,1.0,4.0,76,0.00,,---,0.29,VWS V14.01,2013-07-21 03:04:00,
2013-07-20 20:10:00,75.3,67.2,29.71,South,190,2.0,4.0,76,0.00,,---,0.29,VWS V14.01,2013-07-21 03:10:00,
2013-07-20 20:15:00,75.4,67.3,29.71,West,259,0.0,4.0,76,0.00,,---,0.29,VWS V14.01,2013-07-21 03:15:00,
2013-07-20 20:20:00,75.5,66.6,29.72,WSW,245,0.0,4.0,74,0.00,,---,0.29,VWS V14.01,2013-07-21 03:20:00,
2013-07-20 20:25:00,75.3,66.8,29.71,SW,229,1.0,4.0,75,0.00,,---,0.29,VWS V14.01,2013-07-21 03:25:00,
2013-07-20 20:30:00,75.3,66.8,29.72,WSW,238,0.0,4.0,75,0.00,,---,0.29,VWS V14.01,2013-07-21 03:30:00,
2013-07-20 20:36:00,75.2,67.1,29.72,WSW,239,0.0,0.0,76,0.00,,---,0.29,VWS V14.01,2013-07-21 03:36:00,
2013-07-20 20:41:00,75.1,67.0,29.72,West,274,1.0,2.0,76,0.00,,---,0.29,VWS V14.01,2013-07-21 03:41:00,
2013-07-20 20:46:00,74.9,67.2,29.73,West,276,0.0,2.0,77,0.00,,---,0.29,VWS V14.01,2013-07-21 03:46:00,
2013-07-20 20:51:00,74.7,67.4,29.73,NNW,343,0.0,2.0,78,0.00,,---,0.29,VWS V14.01,2013-07-21 03:51:00,
2013-07-20 20:56:00,74.5,67.2,29.73,NNW,342,0.0,2.0,78,0.00,,---,0.29,VWS V14.01,2013-07-21 03:56:00,
2013-07-20 21:00:00,74.3,67.4,29.73,NW,325,0.0,2.0,79,0.00,,---,0.29,VWS V14.01,2013-07-21 04:00:00,
2013-07-20 21:01:00,74.4,67.1,29.73,NW,321,0.0,2.0,78,0.00,,---,0.29,VWS V14.01,2013-07-21 04:01:00,
2013-07-20 21:02:00,74.3,67.4,29.73,NW,321,0.0,2.0,79,0.00,,---,0.29,VWS V14.01,2013-07-21 04:02:00,
2013-07-20 21:07:00,74.2,67.3,29.73,WNW,296,0.0,1.0,79,0.00,,---,0.29,VWS V14.01,2013-07-21 04:07:00,
2013-07-20 21:12:00,74.1,67.2,29.73,WNW,300,1.0,2.0,79,0.00,,---,0.29,VWS V14.01,2013-07-21 04:12:00,
2013-07-20 21:17:00,74.0,67.1,29.74,NW,317,0.0,2.0,79,0.00,,---,0.29,VWS V14.01,2013-07-21 04:17:00,
2013-07-20 21:22:00,74.0,67.1,29.74,NNW,343,1.0,2.0,79,0.00,,---,0.29,VWS V14.01,2013-07-21 04:22:00,
2013-07-20 21:27:00,74.0,67.1,29.74,NW,325,0.0,2.0,79,0.00,,---,0.29,VWS V14.01,2013-07-21 04:27:00,
2013-07-20 21:30:00,74.0,67.1,29.74,NW,324,0.0,2.0,79,0.00,,---,0.29,VWS V14.01,2013-07-21 04:30:00,
2013-07-20 21:32:00,74.0,67.1,29.74,NW,325,0.0,2.0,79,0.00,,---,0.29,VWS V14.01,2013-07-21 04:32:00,
2013-07-20 21:37:00,74.1,67.2,29.74,NW,324,0.0,1.0,79,0.00,,---,0.29,VWS V14.01,2013-07-21 04:37:00,
2013-07-20 21:43:00,74.0,67.1,29.74,NNE,26,0.0,1.0,79,0.00,,---,0.29,VWS V14.01,2013-07-21 04:43:00,
2013-07-20 21:48:00,74.1,67.5,29.74,NNE,25,0.0,1.0,80,0.00,,---,0.29,VWS V14.01,2013-07-21 04:48:00,
2013-07-20 21:53:00,74.1,67.5,29.74,NNE,25,0.0,1.0,80,0.00,,---,0.29,VWS V14.01,2013-07-21 04:53:00,
2013-07-20 21:58:00,74.0,67.4,29.75,NNE,25,0.0,1.0,80,0.00,,---,0.29,VWS V14.01,2013-07-21 04:58:00,
2013-07-20 22:00:00,74.0,67.4,29.75,NE,47,0.0,1.0,80,0.00,,---,0.29,VWS V14.01,2013-07-21 05:00:00,
2013-07-20 22:03:00,74.0,67.4,29.75,NE,47,0.0,1.0,80,0.00,,---,0.29,VWS V14.01,2013-07-21 05:03:00,
2013-07-20 22:08:00,74.0,67.4,29.74,NE,46,0.0,0.0,80,0.00,,---,0.29,VWS V14.01,2013-07-21 05:08:00,
2013-07-20 22:13:00,74.1,67.5,29.74,NE,47,0.0,0.0,80,0.00,,---,0.29,VWS V14.01,2013-07-21 05:13:00,
2013-07-20 22:18:00,74.1,67.2,29.75,NNE,13,0.0,2.0,79,0.00,,---,0.29,VWS V14.01,2013-07-21 05:18:00,
2013-07-20 22:23:00,74.1,67.2,29.75,NNE,13,0.0,2.0,79,0.00,,---,0.29,VWS V14.01,2013-07-21 05:23:00,
2013-07-20 22:28:00,74.2,67.3,29.75,NNE,12,0.0,2.0,79,0.00,,---,0.29,VWS V14.01,2013-07-21 05:28:00,
2013-07-20 22:30:00,74.2,67.3,29.75,North,11,0.0,2.0,79,0.00,,---,0.29,VWS V14.01,2013-07-21 05:30:00,
2013-07-20 22:34:00,74.2,67.3,29.75,North,11,0.0,0.0,79,0.00,,---,0.29,VWS V14.01,2013-07-21 05:34:00,
2013-07-20 22:39:00,74.2,67.3,29.75,North,11,0.0,0.0,79,0.00,,---,0.29,VWS V14.01,2013-07-21 05:39:00,
2013-07-20 22:44:00,74.1,67.2,29.75,North,11,0.0,0.0,79,0.00,,---,0.29,VWS V14.01,2013-07-21 05:44:00,
2013-07-20 22:49:00,74.1,67.2,29.75,North,11,0.0,0.0,79,0.00,,---,0.29,VWS V14.01,2013-07-21 05:49:00,
2013-07-20 22:54:00,74.2,67.3,29.74,North,11,0.0,0.0,79,0.00,,---,0.29,VWS V14.01,2013-07-21 05:54:00,
2013-07-20 22:59:00,74.2,67.3,29.74,North,11,0.0,0.0,79,0.00,,---,0.29,VWS V14.01,2013-07-21 05:59:00,
2013-07-20 23:00:00,74.1,67.2,29.74,North,11,0.0,0.0,79,0.00,,---,0.29,VWS V14.01,2013-07-21 06:00:00,
2013-07-20 23:04:00,74.1,67.2,29.74,North,11,0.0,0.0,79,0.00,,---,0.29,VWS V14.01,2013-07-21 06:04:00,
2013-07-20 23:09:00,73.9,67.3,29.74,North,11,0.0,0.0,80,0.00,,---,0.29,VWS V14.01,2013-07-21 06:09:00,
2013-07-20 23:14:00,73.9,67.7,29.74,North,11,0.0,0.0,81,0.00,,---,0.29,VWS V14.01,2013-07-21 06:14:00,
2013-07-20 23:20:00,73.8,68.0,29.74,North,11,0.0,0.0,82,0.00,,---,0.29,VWS V14.01,2013-07-21 06:20:00,
2013-07-20 23:25:00,73.6,68.1,29.74,West,277,0.0,0.0,83,0.00,,---,0.29,VWS V14.01,2013-07-21 06:25:00,
2013-07-20 23:30:00,73.4,67.9,29.74,SW,231,0.0,2.0,83,0.00,,---,0.29,VWS V14.01,2013-07-21 06:30:00,
2013-07-20 23:35:00,73.3,67.8,29.74,SW,231,0.0,0.0,83,0.00,,---,0.29,VWS V14.01,2013-07-21 06:35:00,
2013-07-20 23:40:00,73.3,67.8,29.74,SW,231,0.0,0.0,83,0.00,,---,0.29,VWS V14.01,2013-07-21 06:40:00,
2013-07-20 23:45:00,73.4,67.9,29.73,SW,231,0.0,0.0,83,0.00,,---,0.29,VWS V14.01,2013-07-21 06:45:00,
2013-07-20 23:50:00,73.3,67.5,29.73,SW,231,0.0,0.0,82,0.00,,---,0.29,VWS V14.01,2013-07-21 06:50:00,
2013-07-20 23:55:00,73.2,67.4,29.73,SW,231,0.0,0.0,82,0.00,,---,0.29,VWS V14.01,2013-07-21 06:55:00,